User: anonymous   Login
Location: Unspecified
(0.0000°N, 0.0000°E)
Time: 15:06:12
(UTC+00:00)
Language:

FAST 1 (USA 222) - Orbit

View from above orbital plane
View from above orbital plane
View from above satellite
View from above satellite

Ground track
Ground track

The orbit data is extracted from the following two-line orbital elements,

1 37227U 10062F   18244.02090889 0.00000550  00000-0  72656-4 0    08
2 37227  71.9639 341.1655 0010000  11.9985 348.0014 14.79934797    07
Epoch (UTC): 01 September 2018 00:30:06
Eccentricity: 0.0010000
inclination: 71.9639°
perigee height: 622 km
apogee height: 636 km
right ascension of ascending node: 341.1655°
argument of perigee: 11.9985°
revolutions per day: 14.79934797
mean anomaly at epoch: 348.0014°
orbit number at epoch: 0

The dashed part of the orbit path shows where the satellite is in the earth's shadow,  

DLR